Breckenridge, TX

8:59 PM CST on February 24, 2017 (GMT -0600)
Stephens County

Weather History for KBKD - December, 2012

Change the Weather History Date:

Saturday, December 1, 2012

  Actual Average (KMWL) Record (KMWL)
Temperature  
Mean Temperature 71 °F -  
Max Temperature 82 °F 60 °F 82 °F (2012)
Min Temperature 60 °F 38 °F 19 °F (2006)
Cooling Degree Days 6    
Growing Degree Days 21 (Base 50)    
Moisture  
Dew Point 54 °F    
Average Humidity 61    
Maximum Humidity 94    
Minimum Humidity 28    
Precipitation  
Precipitation 0.00 in - - ()
Sea Level Pressure  
Sea Level Pressure 29.98 in    
Wind  
Wind Speed 13 mph (SSW)    
Max Wind Speed 21 mph    
Max Gust Speed 31 mph    
Visibility 10 miles    
Events      
Averages and records for this station are not official NWS values.
T = Trace of Precipitation, MM = Missing Value Source: NWS Daily Summary

Daily Weather History Graph

Daily Weather History Graph

Search for Another Location

Airport or City:

Trip Planner

Search our weather history database for the weather conditions in past years. The results will help you decide how hot, cold, wet, or windy it might be!

Date:

Astronomy

Dec. 01, 2012 Rise Set
Actual Time 7:20 AM CST 5:29 PM CST
Civil Twilight 6:53 AM CST 5:56 PM CST
Nautical Twilight 6:22 AM CST 6:26 PM CST
Astronomical Twilight 5:53 AM CST 6:56 PM CST
Moon 8:17 PM CST (12/1) 9:36 AM CST (12/1)
Length of Visible Light 11h 02m
Length of Day
10h 08m
Waning Gibbous, 91% of the Moon is Illuminated
Dec 1
Waning Gibbous
Dec 6
Last Quarter
Dec 13
New
Dec 19
First Quarter
Dec 28
Full

Hourly Weather History & Observations

Time (CST) Temp. Heat Index Dew Point Humidity Pressure Visibility Wind Dir Wind Speed Gust Speed Precip Events Conditions
12:15 AM 64.4 °F - 55.4 °F 73% 30.01 in 10.0 mi South 13.8 mph - N/A   Clear
12:35 AM 62.6 °F - 55.4 °F 77% 30.01 in 10.0 mi South 15.0 mph 20.7 mph N/A   Clear
12:55 AM 62.6 °F - 55.4 °F 77% 30.01 in 10.0 mi SSW 12.7 mph 17.3 mph N/A   Clear
1:15 AM 62.6 °F - 55.4 °F 77% 30.01 in 10.0 mi South 12.7 mph 17.3 mph N/A   Clear
1:35 AM 62.6 °F - 55.4 °F 77% 30.01 in 10.0 mi South 11.5 mph 18.4 mph N/A   Clear
1:55 AM 62.6 °F - 55.4 °F 77% 30.01 in 10.0 mi South 13.8 mph 19.6 mph N/A   Clear
2:15 AM 62.6 °F - 55.4 °F 77% 30.01 in 10.0 mi South 13.8 mph 19.6 mph N/A   Clear
3:35 AM 60.8 °F - 57.2 °F 88% 29.99 in 10.0 mi SSW 9.2 mph 16.1 mph N/A   Clear
3:55 AM 60.8 °F - 59.0 °F 94% 29.99 in 10.0 mi SSW 10.4 mph - N/A   Clear
4:15 AM 60.8 °F - 59.0 °F 94% 29.99 in 10.0 mi South 10.4 mph - N/A   Clear
4:35 AM 60.8 °F - 59.0 °F 94% 29.99 in 10.0 mi South 9.2 mph - N/A   Clear
4:55 AM 60.8 °F - 59.0 °F 94% 29.99 in 10.0 mi South 8.1 mph - N/A   Clear
5:15 AM 60.8 °F - 59.0 °F 94% 29.99 in 10.0 mi South 10.4 mph 16.1 mph N/A   Scattered Clouds
5:55 AM 60.8 °F - 59.0 °F 94% 29.98 in 10.0 mi South 10.4 mph - N/A   Scattered Clouds
6:15 AM 60.8 °F - 59.0 °F 94% 29.99 in 10.0 mi South 11.5 mph - N/A   Clear
6:35 AM 60.8 °F - 59.0 °F 94% 29.99 in 10.0 mi South 11.5 mph 17.3 mph N/A   Clear
6:55 AM 60.8 °F - 59.0 °F 94% 30.01 in 10.0 mi South 10.4 mph - N/A   Scattered Clouds
7:15 AM 60.8 °F - 59.0 °F 94% 30.01 in 10.0 mi South 11.5 mph - N/A   Scattered Clouds
7:35 AM 60.8 °F - 59.0 °F 94% 30.01 in 10.0 mi South 13.8 mph 19.6 mph N/A   Mostly Cloudy
7:55 AM 60.8 °F - 59.0 °F 94% 30.02 in 10.0 mi South 9.2 mph - N/A   Mostly Cloudy
8:15 AM 60.8 °F - 59.0 °F 94% 30.02 in 10.0 mi South 12.7 mph - N/A   Scattered Clouds
8:35 AM 62.6 °F - 59.0 °F 88% 30.03 in 10.0 mi South 8.1 mph - N/A   Clear
8:55 AM 64.4 °F - 59.0 °F 83% 30.03 in 10.0 mi SSW 10.4 mph 17.3 mph N/A   Clear
9:15 AM 66.2 °F - 59.0 °F 78% 30.03 in 10.0 mi SSW 15.0 mph 21.9 mph N/A   Clear
9:35 AM 68.0 °F - 59.0 °F 73% 30.03 in 10.0 mi SSW 17.3 mph 24.2 mph N/A   Scattered Clouds
10:15 AM 71.6 °F - 57.2 °F 60% 30.03 in 10.0 mi SW 18.4 mph 31.1 mph N/A   Clear
11:15 AM 73.4 °F - 57.2 °F 57% 30.02 in 10.0 mi SW 20.7 mph 26.5 mph N/A   Clear
11:35 AM 73.4 °F - 57.2 °F 57% 30.01 in 10.0 mi SW 16.1 mph 25.3 mph N/A   Clear
11:55 AM 77.0 °F - 55.4 °F 47% 29.99 in 10.0 mi SW 16.1 mph 23.0 mph N/A   Clear
12:15 PM 78.8 °F - 55.4 °F 44% 29.98 in 10.0 mi SSW 19.6 mph 23.0 mph N/A   Clear
12:35 PM 78.8 °F - 55.4 °F 44% 29.97 in 10.0 mi SW 19.6 mph 25.3 mph N/A   Clear
12:55 PM 78.8 °F - 53.6 °F 42% 29.96 in 10.0 mi SSW 18.4 mph 25.3 mph N/A   Clear
1:15 PM 80.6 °F 80.3 °F 53.6 °F 39% 29.96 in 10.0 mi SSW 17.3 mph 23.0 mph N/A   Clear
1:35 PM 80.6 °F 80.3 °F 53.6 °F 39% 29.95 in 10.0 mi SSW 16.1 mph 25.3 mph N/A   Clear
1:55 PM 80.6 °F - 51.8 °F 37% 29.94 in 10.0 mi SW 18.4 mph 23.0 mph N/A   Clear
2:15 PM 82.4 °F - 51.8 °F 35% 29.94 in 10.0 mi SW 17.3 mph 23.0 mph N/A   Clear
2:35 PM 82.4 °F - 50.0 °F 32% 29.93 in 10.0 mi WSW 18.4 mph 26.5 mph N/A   Clear
3:15 PM 82.4 °F - 50.0 °F 32% 29.92 in 10.0 mi SW 18.4 mph 27.6 mph N/A   Clear
3:35 PM 82.4 °F - 50.0 °F 32% 29.92 in 10.0 mi SW 15.0 mph 20.7 mph N/A   Clear
3:55 PM 82.4 °F - 46.4 °F 28% 29.92 in 10.0 mi WSW 18.4 mph 24.2 mph N/A   Clear
4:15 PM 82.4 °F - 46.4 °F 28% 29.93 in 10.0 mi WSW 12.7 mph 24.2 mph N/A   Clear
4:35 PM 82.4 °F - 48.2 °F 30% 29.93 in 10.0 mi SW 13.8 mph 20.7 mph N/A   Clear
4:55 PM 80.6 °F - 46.4 °F 30% 29.93 in 10.0 mi WSW 12.7 mph 28.8 mph N/A   Clear
5:15 PM 78.8 °F - 46.4 °F 32% 29.93 in 10.0 mi SW 10.4 mph - N/A   Clear
5:55 PM 73.4 °F - 46.4 °F 38% 29.93 in 10.0 mi SSW 6.9 mph - N/A   Clear
6:15 PM 75.2 °F - 46.4 °F 36% 29.94 in 10.0 mi SSW 6.9 mph - N/A   Clear
6:35 PM 71.6 °F - 46.4 °F 41% 29.93 in 10.0 mi SSW 10.4 mph - N/A   Clear
6:55 PM 71.6 °F - 46.4 °F 41% 29.93 in 10.0 mi SSW 11.5 mph - N/A   Clear
7:15 PM 71.6 °F - 46.4 °F 41% 29.94 in 10.0 mi SSW 9.2 mph - N/A   Clear
7:35 PM 71.6 °F - 46.4 °F 41% 29.94 in 10.0 mi South 10.4 mph - N/A   Clear
7:55 PM 73.4 °F - 46.4 °F 38% 29.95 in 10.0 mi SSW 9.2 mph - N/A   Clear
8:15 PM 69.8 °F - 46.4 °F 43% 29.95 in 10.0 mi SSE 9.2 mph - N/A   Clear
8:35 PM 69.8 °F - 46.4 °F 43% 29.95 in 10.0 mi South 13.8 mph - N/A   Clear
8:55 PM 69.8 °F - 50.0 °F 49% 29.96 in 10.0 mi South 12.7 mph - N/A   Clear
9:15 PM 69.8 °F - 51.8 °F 53% 29.96 in 10.0 mi SSW 13.8 mph 19.6 mph N/A   Clear
9:35 PM 69.8 °F - 53.6 °F 56% 29.98 in 10.0 mi SSW 13.8 mph 19.6 mph N/A   Clear
9:55 PM 69.8 °F - 53.6 °F 56% 29.98 in 10.0 mi SSW 12.7 mph - N/A   Clear
10:15 PM 69.8 °F - 53.6 °F 56% 29.98 in 10.0 mi SSW 12.7 mph - N/A   Clear
10:35 PM 69.8 °F - 55.4 °F 60% 29.99 in 10.0 mi SSW 12.7 mph 18.4 mph N/A   Clear
10:55 PM 68.0 °F - 55.4 °F 64% 30.00 in 10.0 mi SSW 12.7 mph 17.3 mph N/A   Clear
11:15 PM 68.0 °F - 55.4 °F 64% 30.01 in 10.0 mi South 13.8 mph - N/A   Clear
11:35 PM 68.0 °F - 55.4 °F 64% 30.01 in 10.0 mi SSW 12.7 mph 16.1 mph N/A   Clear
11:55 PM 68.0 °F - 55.4 °F 64% 30.01 in 10.0 mi SSW 11.5 mph 17.3 mph N/A   Clear